Location: Bittelbronn
(48.4454°N, 8.5870°E)
Time: 01:21:38
(UTC+00:00)

Meteor 2-5 Rocket - Pass Details

Date: 13 August 2024
Orbit: 833 x 910 km, 81.2° (Epoch: 07 September)

Event Time Altitude Azimuth Distance (km) Brightness Sun altitude
Rises 00:21:16 0° 359° (N) 3,461 8.1 -26.0°
Reaches altitude 10° 00:24:41 10° 19° (NNE) 2,535 7.2 -25.8°
Maximum altitude 00:28:17 17° 58° (ENE) 2,105 6.3 -25.7°
Drops below altitude 10° 00:31:55 10° 97° (E) 2,558 6.3 -25.5°
Sets 00:35:22 0° 118° (ESE) 3,507 6.8 -25.4°
